SCP
0 0 0 0 0 0 0 0 0 0 0 0 0 0 0 0 0 0 0 0 0 0 0 0 0 0 0 0 0 0 0 0 0 0 0 0 0 0 0 0 0 0 0
0 0 0 0 0 0 0 0 0 0 0 0 0 0 0 0 0 0 0 0 0 0 0 0 0 0 0 0 0 0 0 0 0 0 0 0 0 0 0 0 0 0 0
0 0 0 0 0 0 0 0 0 0 0 0 0 0 0 0 0 0 0 0 0 0 0 0 0 0 0 0 0 0 0 0 0 0 0 0 0 0 0 0 0 0 0
0 0 0 0 0 0 0 0 0 0 0 0 0 0 0 0 0 0 0 0 0 0 0 0 0 0 0 0 0 0 0 0 0 0 0 0 0 0 0 0 0 0 0
0 0 0 0 0 0 0 0 0 0 0 0 0 0 0 0 0 0 0 0 0 0 0 0 0 0 0 0 0 0 0 0 0 0 0 0 0 0 0 0 0 0 0
0 0 0 0 0 0 0 0 0 0 0 0 0 0 0 0 0 0 0 0 0 0 0 0 0 0 0 0 0 0 0 0 0 0 0 0 0 0 0 0 0 0 0
0 0 0 0 0 0 0 0 0 0 0 0 0 0 0 0 0 0 0 0 0 0 0 0 0 0 0 0 0 0 0 0 0 0 0 0 0 0 0 0 0 0 0
0 0 0 0 0 0 0 0 0 0 0 0 0 0 0 0 0 0 0 0 0 0 0 0 0 0 0 0 0 0 0 0 0 0 0 0 0 0 0 0 0 0 0
0 0 0 0 0 0 0 0 0 0 0 0 0 0 0 0 0 0 0 0 0 0 0 0 0 0 0 0 0 0 0 0 0 0 0 0 0 0 0 0 0 0 0
0 0 0 0 0 0 0 0 0 0 0 0 0 0 0 0 0 0 0 0 0 0 0 0 0 0 0 0 0 0 0 0 0 0 0 0 0 0 0 0 0 0 0
0 0 0 0 0 0 0 0 0 0 0 0 0 0 0 0 0 0 0 0 0 0 0 0 0 0 0 0 0 0 0 0 0 0 0 0 0 0 0 0 0 0 0
0 0 0 0 0 0 0 0 0 0 0 0 0 0 0 0 0 0 0 0 0 0 0 0 0 0 0 0 0 0 0 0 0 0 0 0 0 0 0 0 0 0 0
0 0 0 0 0 0 0 0 0 0 0 0 0 0 0 0 0 0 0 0 0 0 0 0 0 0 0 0 0 0 0 0 0 0 0 0 0 0 0 0 0 0 0
0 0 0 0 0 0 0 0 0 0 0 0 0 0 0 0 0 0 0 0 0 0 0 0 0 0 0 0 0 0 0 0 0 0 0 0 0 0 0 0 0 0 0
0 0 0 0 0 0 0 0 0 0 0 0 0 0 0 0 0 0 0 0 0 0 0 0 0 0 0 0 0 0 0 0 0 0 0 0 0 0 0 0 0 0 0
0 0 0 0 0 0 0 0 0 0 0 0 0 0 0 0 0 0 0 0 0 0 0 0 0 0 0 0 0 0 0 0 0 0 0 0 0 0 0 0 0 0 0
0 0 0 0 0 0 0 0 0 0 0 0 0 0 0 0 0 0 0 0 0 0 0 0 0 0 0 0 0 0 0 0 0 0 0 0 0 0 0 0 0 0 0
0 0 0 0 0 0 0 0 0 0 0 0 0 0 0 0 0 0 0 0 0 0 0 0 0 0 0 0 0 0 0 0 0 0 0 0 0 0 0 0 0 0 0
0 0 0 0 0 0 0 0 0 0 0 0 0 0 0 0 0 0 0 0 0 0 0 0 0 0 0 0 0 0 0 0 0 0 0 0 0 0 0 0 0 0 0
0 0 0 0 0 0 0 0 0 0 0 0 0 0 0 0 0 0 0 0 0 0 0 0 0 0 0 0 0 0 0 0 0 0 0 0 0 0 0 0 0 0 0
0 0 0 0 0 0 0 0 0 0 0 0 0 0 0 0 0 0 0 0 0 0 0 0 0 0 0 0 0 0 0 0 0 0 0 0 0 0 0 0 0 0 0
0 0 0 0 0 0 0 0 0 0 0 0 0 0 0 0 0 0 0 0 0 0 0 0 0 0 0 0 0 0 0 0 0 0 0 0 0 0 0 0 0 0 -0
0 0 0 0 0 0 0 0 0 0 0 0 0 0 0 0 0 0 0 0 0 0 0 0 0 0 0 0 0 0 0 0 0 0 0 0 0 0 0 0 -0 -0 -0
0 0 0 0 0 0 0 0 0 0 0 0 0 0 0 0 0 0 0 0 0 0 0 0 0 0 0 0 0 0 0 0 0 0 0 0 0 0 0 0 -0 -0 -0
0 0 0 0 0 0 0 0 0 0 0 0 0 0 0 0 0 0 0 0 0 0 0 0 0 0 0 0 0 0 0 0 0 0 0 0 0 0 0 0 0 -0 -0
0 0 0 0 0 0 0 0 0 0 0 0 0 0 0 0 0 0 0 0 0 0 0 0 0 0 0 0 0 0 0 0 0 0 0 0 0 0 0 0 0 0 0
Wind_Speed_500mb
3 1 1 3 4 6 7 8 9 11 12 14 19 21 23 25 28 31 35 36 38 40 41 42 44 47 44 44 50 56 57 57 56 53 53 51 49 49 48 50 50 52 51
8 6 5 7 7 8 8 9 10 12 15 18 20 25 26 29 34 40 40 41 42 46 49 51 53 55 57 56 57 56 60 65 68 68 65 67 67 67 61 58 55 57 59
13 12 11 11 12 12 12 14 15 16 19 25 30 34 38 40 41 44 47 49 46 47 51 51 54 55 58 58 58 58 66 68 67 69 76 86 79 72 75 74 70 68 67
15 16 15 16 16 16 17 18 20 22 27 31 35 37 40 46 48 53 54 51 52 49 48 50 49 48 50 53 57 57 58 61 67 68 73 76 80 89 97 85 82 84 87
17 15 14 12 15 18 20 22 26 30 32 35 41 45 47 51 51 52 55 51 44 40 59 48 49 51 47 52 54 55 58 59 65 67 69 77 74 84 82 97 93 107 110
20 18 19 20 21 23 26 29 32 35 38 43 47 50 50 50 50 48 48 34 47 49 45 53 46 53 55 58 55 60 64 62 66 69 69 76 77 79 83 81 90 86 118
22 22 22 26 29 30 30 32 36 39 39 41 50 53 57 46 45 33 36 55 47 49 44 45 61 58 58 63 62 64 67 70 67 67 71 79 81 86 87 87 87 86 95
28 27 29 28 32 32 29 30 33 36 40 39 44 49 34 60 21 53 49 48 43 46 58 53 63 59 61 64 64 65 65 66 65 68 65 70 74 76 85 88 89 97 102
33 32 32 32 30 27 26 25 26 29 33 35 37 35 27 21 65 37 65 40 62 63 69 67 66 63 67 69 68 67 63 66 68 69 70 69 70 72 74 75 76 78 81
33 32 30 29 27 24 23 24 25 28 35 43 43 38 37 44 41 45 29 77 45 78 76 70 68 71 66 65 58 60 66 68 70 77 79 79 78 82 78 80 82 84 87
31 29 26 23 19 20 21 23 32 32 30 30 33 37 39 40 40 39 75 75 96 87 78 81 69 72 64 57 53 53 67 69 75 81 81 84 89 92 93 87 85 87 90
28 24 23 26 22 22 22 19 18 19 23 26 28 32 37 41 47 51 70 90 98 95 98 58 81 68 43 45 55 68 73 83 88 88 92 93 96 101 103 93 93 90 90
28 26 18 13 11 9 10 13 17 21 25 29 31 32 35 38 45 52 62 80 97 112 72 89 76 49 48 54 88 89 91 92 89 87 89 92 91 88 95 96 94 91 91
24 21 16 13 11 10 13 16 20 23 26 30 32 36 38 41 44 49 55 66 98 92 89 81 59 38 96 97 94 93 91 87 84 85 85 79 80 77 77 80 82 83 88
27 22 17 12 11 13 16 19 21 25 28 32 36 40 42 44 45 47 49 51 56 84 102 68 76 101 100 101 97 93 90 87 81 76 75 76 80 84 82 82 82 80 82
28 21 15 12 13 15 18 22 26 31 34 38 41 43 46 46 46 46 48 49 49 57 85 94 98 100 100 98 95 92 89 87 86 82 74 76 75 78 82 81 83 80 82
25 19 15 14 15 17 22 28 32 35 38 40 43 44 45 46 46 46 47 49 50 54 72 97 91 95 95 95 96 95 95 94 92 84 85 78 81 82 80 79 78 76 75
22 16 13 13 16 21 26 31 35 38 39 40 41 43 45 45 45 47 50 53 56 58 62 85 88 89 90 92 93 95 91 92 90 90 85 79 81 75 76 75 77 78 78
20 16 12 14 19 25 31 34 34 35 38 41 43 43 44 45 46 49 51 54 54 53 55 64 85 83 80 83 90 91 96 97 101 101 84 79 80 72 67 69 68 68 69
18 12 13 18 22 27 30 32 34 35 37 40 42 43 44 45 48 52 54 52 51 52 56 62 68 75 78 79 77 90 103 97 99 82 78 79 78 74 71 69 73 74 72
16 13 16 20 23 26 28 30 31 34 37 39 40 41 42 44 48 48 48 48 47 49 51 55 63 67 73 80 75 78 87 92 92 76 88 92 79 76 71 67 72 71 68
15 15 18 19 23 27 29 29 29 33 37 40 40 40 41 44 46 42 37 34 33 40 43 49 56 64 63 64 71 73 76 84 92 78 88 88 82 73 74 77 74 72 52
18 18 18 21 23 25 25 25 28 33 35 37 39 40 40 40 42 40 37 33 33 30 33 42 50 47 54 56 60 66 69 71 71 62 84 83 83 73 70 79 98 71 52
22 20 20 22 22 24 23 24 27 30 32 34 36 38 39 39 37 37 33 35 36 35 38 35 38 38 38 44 49 56 62 63 59 47 77 74 78 64 66 76 87 87 81
25 23 21 21 24 24 21 22 26 28 32 33 34 35 37 36 35 31 30 36 39 37 27 25 25 25 30 38 47 54 59 67 71 49 71 62 67 50 61 63 67 70 74
26 23 22 25 24 19 19 22 26 28 29 31 30 31 32 32 33 29 29 34 38 36 29 14 12 20 30 38 44 48 53 57 61 42 65 63 57 53 30 47 50 56 59
Wind_Direction_500mb
175 175 5 344 355 358 358 359 358 356 1 6 360 353 347 337 332 329 325 324 323 322 321 320 317 314 306 298 299 302 302 301 299 295 298 295 285 273 267 269 257 255 259
229 252 277 293 305 308 315 318 327 340 348 352 343 335 331 327 325 322 319 317 315 314 316 312 310 309 307 302 296 291 289 290 293 290 290 294 293 296 297 281 280 269 262
243 256 268 273 284 297 311 316 317 323 330 326 322 316 313 310 317 313 312 310 313 311 311 311 308 303 304 302 299 296 295 291 289 282 277 282 281 281 285 284 282 280 277
256 250 263 277 287 306 319 325 326 322 317 313 312 312 312 310 313 311 314 314 311 309 309 312 307 308 306 306 304 302 296 292 293 287 283 285 285 275 272 278 274 280 277
265 275 295 304 311 315 316 312 306 306 303 309 307 307 309 310 309 309 311 310 311 312 315 306 304 306 304 301 300 301 301 296 295 293 291 289 285 280 287 286 274 271 284
260 273 280 288 290 297 297 298 297 301 305 307 306 304 302 304 305 308 307 308 312 313 308 311 313 313 299 308 295 299 299 295 295 291 289 289 289 289 287 284 280 271 281
256 265 269 276 285 289 290 291 296 301 302 307 308 307 306 308 317 312 311 305 311 313 317 310 313 315 307 306 297 300 298 298 297 300 293 288 286 282 284 282 282 285 277
260 266 272 271 274 282 288 290 296 299 303 308 312 316 324 324 320 307 317 320 319 318 316 314 321 319 321 322 318 315 308 302 302 303 301 293 295 290 283 286 285 281 279
250 252 257 264 271 276 280 288 290 297 302 307 303 313 325 304 315 317 315 319 318 318 323 321 323 323 322 321 318 317 315 309 305 306 307 306 304 298 293 293 292 291 289
246 251 257 262 263 263 266 271 286 290 294 298 298 304 307 301 314 318 314 312 318 315 320 324 325 325 324 320 318 317 318 315 310 308 308 305 304 298 297 294 293 289 288
244 248 249 254 257 254 260 267 279 286 297 307 314 315 312 313 312 309 312 316 316 320 324 325 325 328 330 330 326 311 305 305 301 300 298 294 295 293 293 293 293 290 287
234 232 236 243 238 252 264 277 291 302 308 313 315 314 317 323 320 320 313 317 316 320 322 332 330 334 335 317 313 310 304 302 299 295 290 287 287 286 288 293 290 291 289
219 230 229 218 230 245 266 284 297 305 310 309 309 312 317 317 317 316 315 316 316 317 326 324 332 331 320 314 316 318 315 312 309 303 296 292 291 292 287 290 292 292 290
218 201 197 204 224 258 280 295 304 310 313 317 321 321 320 317 316 315 316 318 318 316 320 327 327 325 320 323 323 322 319 318 314 310 309 308 307 307 302 299 298 295 289
190 191 201 222 256 280 296 305 313 318 322 322 321 319 318 318 316 315 315 317 318 316 318 326 318 321 325 327 329 331 331 331 328 322 316 314 309 308 306 304 301 299 294
189 196 215 244 269 290 304 317 325 327 326 322 320 320 317 317 318 317 317 317 314 308 300 312 317 321 325 330 333 333 332 332 332 330 321 316 312 310 308 304 302 299 295
196 206 226 258 282 305 319 324 323 323 320 318 317 316 317 318 319 320 319 317 314 311 307 311 316 325 330 331 330 332 335 335 332 331 323 319 314 312 309 309 307 304 301
204 220 240 267 298 312 317 317 317 317 318 318 319 320 319 320 321 322 323 323 321 320 318 316 324 331 332 335 335 337 339 338 338 335 333 329 323 317 313 311 305 301 299
211 227 252 287 303 311 314 315 317 320 321 323 324 324 322 323 323 325 327 328 328 327 326 324 326 332 331 338 336 337 339 342 342 342 341 339 336 329 322 319 318 313 305
215 235 272 291 304 312 311 314 320 324 326 326 325 326 327 328 331 333 334 334 333 333 334 332 326 332 336 339 339 342 341 341 343 351 345 343 343 339 338 330 324 321 317
222 249 276 295 303 307 310 315 321 326 330 330 329 331 331 333 336 339 337 336 336 335 333 333 334 330 333 340 344 337 338 343 349 355 345 357 348 350 345 342 335 329 322
235 261 281 292 299 303 308 317 328 332 336 336 335 338 342 342 339 337 338 336 338 336 335 332 326 332 334 337 338 344 346 350 350 355 356 4 5 7 359 1 356 343 337
246 260 270 283 292 301 309 318 330 336 338 338 340 341 342 337 336 336 342 346 344 340 329 323 326 337 334 339 343 346 349 350 353 357 358 8 15 18 30 37 32 19 34
246 253 266 280 289 298 306 321 329 335 337 339 339 335 330 330 331 334 340 340 338 336 333 335 334 339 342 344 346 347 345 347 2 6 2 6 17 32 45 51 55 48 58
242 252 268 280 289 293 307 319 328 333 337 336 330 324 324 327 333 345 337 332 333 333 344 341 341 348 352 350 346 347 356 360 5 10 8 9 14 36 46 47 51 57 55
240 251 265 274 278 288 303 316 324 332 333 325 321 326 331 334 336 337 331 328 330 337 343 352 351 356 354 351 349 353 358 0 4 6 5 10 17 20 26 40 40 39 41
Wind_Speed_850mb
3 1 1 3 4 6 7 8 9 11 12 14 19 21 23 25 28 31 35 36 38 40 41 42 44 47 44 44 50 56 57 57 56 53 53 51 49 49 48 50 50 52 51
8 6 5 7 7 8 8 9 10 12 15 18 20 25 26 29 34 40 40 41 42 46 49 51 53 55 57 56 57 56 60 65 68 68 65 67 67 67 61 58 55 57 59
13 12 11 11 12 12 12 14 15 16 19 25 30 34 38 40 41 44 47 49 46 47 51 51 54 55 58 58 58 58 66 68 67 69 76 86 79 72 75 74 70 68 67
15 16 15 16 16 16 17 18 20 22 27 31 35 37 40 46 48 53 54 51 52 49 48 50 49 48 50 53 57 57 58 61 67 68 73 76 80 89 97 85 82 84 87
17 15 14 12 15 18 20 22 26 30 32 35 41 45 47 51 51 52 55 51 44 40 59 48 49 51 47 52 54 55 58 59 65 67 69 77 74 84 82 97 93 107 110
20 18 19 20 21 23 26 29 32 35 38 43 47 50 50 50 50 48 48 34 47 49 45 53 46 53 55 58 55 60 64 62 66 69 69 76 77 79 83 81 90 86 118
22 22 22 26 29 30 30 32 36 39 39 41 50 53 57 46 45 33 36 55 47 49 44 45 61 58 58 63 62 64 67 70 67 67 71 79 81 86 87 87 87 86 95
28 27 29 28 32 32 29 30 33 36 40 39 44 49 34 60 21 53 49 48 43 46 58 53 63 59 61 64 64 65 65 66 65 68 65 70 74 76 85 88 89 97 102
33 32 32 32 30 27 26 25 26 29 33 35 37 35 27 21 65 37 65 40 62 63 69 67 66 63 67 69 68 67 63 66 68 69 70 69 70 72 74 75 76 78 81
33 32 30 29 27 24 23 24 25 28 35 43 43 38 37 44 41 45 29 77 45 78 76 70 68 71 66 65 58 60 66 68 70 77 79 79 78 82 78 80 82 84 87
31 29 26 23 19 20 21 23 32 32 30 30 33 37 39 40 40 39 75 75 96 87 78 81 69 72 64 57 53 53 67 69 75 81 81 84 89 92 93 87 85 87 90
28 24 23 26 22 22 22 19 18 19 23 26 28 32 37 41 47 51 70 90 98 95 98 58 81 68 43 45 55 68 73 83 88 88 92 93 96 101 103 93 93 90 90
28 26 18 13 11 9 10 13 17 21 25 29 31 32 35 38 45 52 62 80 97 112 72 89 76 49 48 54 88 89 91 92 89 87 89 92 91 88 95 96 94 91 91
24 21 16 13 11 10 13 16 20 23 26 30 32 36 38 41 44 49 55 66 98 92 89 81 59 38 96 97 94 93 91 87 84 85 85 79 80 77 77 80 82 83 88
27 22 17 12 11 13 16 19 21 25 28 32 36 40 42 44 45 47 49 51 56 84 102 68 76 101 100 101 97 93 90 87 81 76 75 76 80 84 82 82 82 80 82
28 21 15 12 13 15 18 22 26 31 34 38 41 43 46 46 46 46 48 49 49 57 85 94 98 100 100 98 95 92 89 87 86 82 74 76 75 78 82 81 83 80 82
25 19 15 14 15 17 22 28 32 35 38 40 43 44 45 46 46 46 47 49 50 54 72 97 91 95 95 95 96 95 95 94 92 84 85 78 81 82 80 79 78 76 75
22 16 13 13 16 21 26 31 35 38 39 40 41 43 45 45 45 47 50 53 56 58 62 85 88 89 90 92 93 95 91 92 90 90 85 79 81 75 76 75 77 78 78
20 16 12 14 19 25 31 34 34 35 38 41 43 43 44 45 46 49 51 54 54 53 55 64 85 83 80 83 90 91 96 97 101 101 84 79 80 72 67 69 68 68 69
18 12 13 18 22 27 30 32 34 35 37 40 42 43 44 45 48 52 54 52 51 52 56 62 68 75 78 79 77 90 103 97 99 82 78 79 78 74 71 69 73 74 72
16 13 16 20 23 26 28 30 31 34 37 39 40 41 42 44 48 48 48 48 47 49 51 55 63 67 73 80 75 78 87 92 92 76 88 92 79 76 71 67 72 71 68
15 15 18 19 23 27 29 29 29 33 37 40 40 40 41 44 46 42 37 34 33 40 43 49 56 64 63 64 71 73 76 84 92 78 88 88 82 73 74 77 74 72 52
18 18 18 21 23 25 25 25 28 33 35 37 39 40 40 40 42 40 37 33 33 30 33 42 50 47 54 56 60 66 69 71 71 62 84 83 83 73 70 79 98 71 52
22 20 20 22 22 24 23 24 27 30 32 34 36 38 39 39 37 37 33 35 36 35 38 35 38 38 38 44 49 56 62 63 59 47 77 74 78 64 66 76 87 87 81
25 23 21 21 24 24 21 22 26 28 32 33 34 35 37 36 35 31 30 36 39 37 27 25 25 25 30 38 47 54 59 67 71 49 71 62 67 50 61 63 67 70 74
26 23 22 25 24 19 19 22 26 28 29 31 30 31 32 32 33 29 29 34 38 36 29 14 12 20 30 38 44 48 53 57 61 42 65 63 57 53 30 47 50 56 59
Wind_Direction_850mb
175 175 5 344 355 358 358 359 358 356 1 6 360 353 347 337 332 329 325 324 323 322 321 320 317 314 306 298 299 302 302 301 299 295 298 295 285 273 267 269 257 255 259
229 252 277 293 305 308 315 318 327 340 348 352 343 335 331 327 325 322 319 317 315 314 316 312 310 309 307 302 296 291 289 290 293 290 290 294 293 296 297 281 280 269 262
243 256 268 273 284 297 311 316 317 323 330 326 322 316 313 310 317 313 312 310 313 311 311 311 308 303 304 302 299 296 295 291 289 282 277 282 281 281 285 284 282 280 277
256 250 263 277 287 306 319 325 326 322 317 313 312 312 312 310 313 311 314 314 311 309 309 312 307 308 306 306 304 302 296 292 293 287 283 285 285 275 272 278 274 280 277
265 275 295 304 311 315 316 312 306 306 303 309 307 307 309 310 309 309 311 310 311 312 315 306 304 306 304 301 300 301 301 296 295 293 291 289 285 280 287 286 274 271 284
260 273 280 288 290 297 297 298 297 301 305 307 306 304 302 304 305 308 307 308 312 313 308 311 313 313 299 308 295 299 299 295 295 291 289 289 289 289 287 284 280 271 281
256 265 269 276 285 289 290 291 296 301 302 307 308 307 306 308 317 312 311 305 311 313 317 310 313 315 307 306 297 300 298 298 297 300 293 288 286 282 284 282 282 285 277
260 266 272 271 274 282 288 290 296 299 303 308 312 316 324 324 320 307 317 320 319 318 316 314 321 319 321 322 318 315 308 302 302 303 301 293 295 290 283 286 285 281 279
250 252 257 264 271 276 280 288 290 297 302 307 303 313 325 304 315 317 315 319 318 318 323 321 323 323 322 321 318 317 315 309 305 306 307 306 304 298 293 293 292 291 289
246 251 257 262 263 263 266 271 286 290 294 298 298 304 307 301 314 318 314 312 318 315 320 324 325 325 324 320 318 317 318 315 310 308 308 305 304 298 297 294 293 289 288
244 248 249 254 257 254 260 267 279 286 297 307 314 315 312 313 312 309 312 316 316 320 324 325 325 328 330 330 326 311 305 305 301 300 298 294 295 293 293 293 293 290 287
234 232 236 243 238 252 264 277 291 302 308 313 315 314 317 323 320 320 313 317 316 320 322 332 330 334 335 317 313 310 304 302 299 295 290 287 287 286 288 293 290 291 289
219 230 229 218 230 245 266 284 297 305 310 309 309 312 317 317 317 316 315 316 316 317 326 324 332 331 320 314 316 318 315 312 309 303 296 292 291 292 287 290 292 292 290
218 201 197 204 224 258 280 295 304 310 313 317 321 321 320 317 316 315 316 318 318 316 320 327 327 325 320 323 323 322 319 318 314 310 309 308 307 307 302 299 298 295 289
190 191 201 222 256 280 296 305 313 318 322 322 321 319 318 318 316 315 315 317 318 316 318 326 318 321 325 327 329 331 331 331 328 322 316 314 309 308 306 304 301 299 294
189 196 215 244 269 290 304 317 325 327 326 322 320 320 317 317 318 317 317 317 314 308 300 312 317 321 325 330 333 333 332 332 332 330 321 316 312 310 308 304 302 299 295
196 206 226 258 282 305 319 324 323 323 320 318 317 316 317 318 319 320 319 317 314 311 307 311 316 325 330 331 330 332 335 335 332 331 323 319 314 312 309 309 307 304 301
204 220 240 267 298 312 317 317 317 317 318 318 319 320 319 320 321 322 323 323 321 320 318 316 324 331 332 335 335 337 339 338 338 335 333 329 323 317 313 311 305 301 299
211 227 252 287 303 311 314 315 317 320 321 323 324 324 322 323 323 325 327 328 328 327 326 324 326 332 331 338 336 337 339 342 342 342 341 339 336 329 322 319 318 313 305
215 235 272 291 304 312 311 314 320 324 326 326 325 326 327 328 331 333 334 334 333 333 334 332 326 332 336 339 339 342 341 341 343 351 345 343 343 339 338 330 324 321 317
222 249 276 295 303 307 310 315 321 326 330 330 329 331 331 333 336 339 337 336 336 335 333 333 334 330 333 340 344 337 338 343 349 355 345 357 348 350 345 342 335 329 322
235 261 281 292 299 303 308 317 328 332 336 336 335 338 342 342 339 337 338 336 338 336 335 332 326 332 334 337 338 344 346 350 350 355 356 4 5 7 359 1 356 343 337
246 260 270 283 292 301 309 318 330 336 338 338 340 341 342 337 336 336 342 346 344 340 329 323 326 337 334 339 343 346 349 350 353 357 358 8 15 18 30 37 32 19 34
246 253 266 280 289 298 306 321 329 335 337 339 339 335 330 330 331 334 340 340 338 336 333 335 334 339 342 344 346 347 345 347 2 6 2 6 17 32 45 51 55 48 58
242 252 268 280 289 293 307 319 328 333 337 336 330 324 324 327 333 345 337 332 333 333 344 341 341 348 352 350 346 347 356 360 5 10 8 9 14 36 46 47 51 57 55
240 251 265 274 278 288 303 316 324 332 333 325 321 326 331 334 336 337 331 328 330 337 343 352 351 356 354 351 349 353 358 0 4 6 5 10 17 20 26 40 40 39 41